Estación meteorológica de Montseny - Mas Joan (Vallès Oriental, P.N.del Montseny)

Consulta los datos en tiempo real de la estación meteorológica de Montseny - Mas Joan





Hora UTC 19:25
Temperatura 10.8 ºC
Humedad 90.7 %
Pluja 0.3 mm
Velocidad viento 2.7 km/h
Dirección viento S
Radiación solar 0.0 W/m²

Datos diarios 2026-05-03



Hora UTC (invierno +1h; verano +2h)
Temperatura (ºC) Humedad (%) Velocidad viento (km/h) Precipitación (mm) Radiación solar (W/m²)
Hora UTC Aire Humedad Vel. Dir. Vel. Max Dir. Intent. máx 5 min. Rad. Sol.
00:05 11.7 86.8 0.5 SW 1.0 SW 0.0 0.0
00:10 11.6 87.1 1.3 SSE 2.6 SE 0.0 0.0
00:15 11.7 87.5 0.9 NNE 2.3 E 0.0 0.0
00:20 11.6 87.6 1.0 NNW 1.7 N 0.0 0.0
00:25 11.6 87.9 0.7 NW 1.2 N 0.0 0.0
00:30 11.6 88.2 1.0 NNW 1.6 NNW 0.0 0.0
00:35 11.5 88.4 1.7 N 2.7 NNE 0.0 0.0
00:40 11.5 88.6 1.1 E 3.0 NE 0.0 0.0
00:45 11.5 88.5 1.0 N 2.0 SSE 0.0 0.0
00:50 11.5 88.6 0.6 NNW 1.6 E 0.0 0.0
00:55 11.5 88.7 0.7 WSW 1.4 S 0.0 0.0
01:00 11.5 89.1 1.5 WNW 2.4 NW 0.0 0.0
01:05 11.5 89.4 1.5 NW 2.3 NNW 0.0 0.0
01:10 11.5 89.6 1.3 NNW 1.8 NNW 0.0 0.0
01:15 11.5 89.7 0.8 NNE 2.3 ESE 0.0 0.0
01:20 11.4 89.1 1.9 ENE 4.2 ENE 0.0 0.0
01:25 11.4 87.4 2.2 SE 4.4 SSE 0.0 0.0
01:30 11.6 86.1 1.5 S 3.8 SSE 0.0 0.0
01:35 11.6 86.0 2.2 S 5.7 SSE 0.0 0.0
01:40 11.6 85.7 1.9 SSE 4.8 S 0.0 0.0
01:45 11.6 85.7 1.1 SW 2.4 SSE 0.0 0.0
01:50 11.5 86.0 1.1 SSW 2.3 S 0.0 0.0
01:55 11.4 86.2 1.4 WSW 2.4 SSW 0.0 0.0
02:00 11.3 86.5 1.6 WSW 2.1 W 0.0 0.0
02:05 11.2 86.6 1.5 W 1.8 WSW 0.0 0.0
02:10 11.0 86.1 1.6 WSW 2.9 W 0.0 0.0
02:15 10.6 78.7 1.8 W 2.8 W 0.0 0.0
02:20 10.5 75.2 2.6 W 3.5 WSW 0.0 0.0
02:25 10.2 72.7 2.4 W 3.3 WNW 0.0 0.0
02:30 10.1 71.3 2.6 W 3.7 W 0.0 0.0
02:35 10.1 70.6 2.8 WSW 3.5 W 0.0 0.0
02:40 10.1 68.5 2.7 W 3.5 WSW 0.0 0.0
02:45 10.2 68.6 2.9 WSW 3.5 WSW 0.0 0.0
02:50 10.1 68.8 2.9 WSW 3.5 WSW 0.0 0.0
02:55 10.1 67.3 2.6 WSW 3.4 WSW 0.0 0.2
03:00 10.2 67.2 2.3 W 3.9 WSW 0.0 0.6
03:05 10.4 65.4 2.4 W 3.2 WSW 0.0 0.7
03:10 10.5 66.0 2.2 WSW 3.0 WSW 0.0 0.4
03:15 10.5 67.5 1.8 SW 3.3 SSW 0.0 0.1
03:20 10.5 68.4 2.1 SSW 4.4 S 0.0 0.2
03:25 10.7 68.0 2.1 SSW 5.6 S 0.0 0.3
03:30 10.8 67.9 1.0 WSW 1.9 SW 0.0 0.0
03:35 10.8 68.3 1.4 SW 3.3 SSW 0.0 0.0
03:40 10.7 69.2 1.7 WSW 3.0 WNW 0.0 0.0
03:45 10.8 68.9 1.8 W 2.6 W 0.0 0.0
03:50 10.7 69.6 2.0 W 3.0 WNW 0.0 0.0
03:55 10.8 69.6 1.7 W 2.9 W 0.0 0.0
04:00 10.9 68.2 1.9 WSW 3.8 SW 0.0 0.2
04:05 11.0 67.0 1.8 WSW 3.5 SW 0.0 0.3
04:10 11.1 67.0 1.7 WSW 3.0 W 0.0 0.2
04:15 11.0 68.3 1.6 WSW 2.1 W 0.0 0.0
04:20 11.0 70.5 1.6 W 2.9 W 0.0 0.0
04:25 11.0 72.8 1.1 WSW 2.0 W 0.0 0.0
04:30 11.1 74.3 1.7 WSW 2.4 WSW 0.0 0.0
04:35 11.0 72.9 1.4 WSW 1.8 WSW 0.0 0.0
04:40 10.8 71.2 2.0 WSW 2.6 WSW 0.0 0.0
04:45 10.6 69.1 2.1 WSW 3.1 WSW 0.0 1.2
04:50 10.5 70.0 2.2 SW 4.8 W 0.0 3.1
04:55 10.6 71.9 2.1 SSW 3.5 SSE 0.0 8.4
05:00 10.5 74.8 1.5 SSW 2.8 S 0.0 15.2
05:05 10.7 79.1 3.0 S 5.4 S 0.0 13.4
05:10 10.8 82.2 2.5 S 5.6 S 0.0 14.2
05:15 10.8 82.7 1.0 SW 2.5 S 0.0 17.5
05:20 10.8 82.7 0.9 SW 1.3 SSW 0.0 23.1
05:25 10.7 82.7 1.8 W 3.8 WNW 0.0 27.8
05:30 10.7 83.1 3.1 NW 4.1 WNW 0.0 34.8
05:35 10.6 84.5 1.7 NNW 3.9 0.0 49.0
05:40 10.6 85.1 1.6 NNE 3.1 ENE 0.0 65.5
05:45 10.6 84.6 1.2 ENE 2.4 NE 0.0 81.3
05:50 10.7 83.9 2.0 SE 3.0 SSE 0.0 85.3
05:55 10.9 84.9 1.9 SSE 3.1 S 0.0 85.6
06:00 10.9 83.5 1.5 SE 2.6 SSE 0.0 83.7
06:05 11.0 82.7 2.0 N 5.7 N 0.0 104.5
06:10 11.1 82.4 2.5 NNE 4.9 N 0.0 115.8
06:15 11.2 81.2 1.6 NE 3.6 ENE 0.0 116.7
06:20 11.4 81.5 1.7 N 3.0 N 0.0 126.2
06:25 11.5 81.0 2.3 NNE 4.0 NNE 0.0 153.0
06:30 11.7 79.5 2.7 NE 5.2 ENE 0.0 132.9
06:35 11.7 80.0 3.1 N 6.0 NNE 0.0 0.0
06:40 11.7 82.4 3.1 E 5.9 ENE 0.0 132.2
06:45 11.5 83.8 2.7 ESE 4.8 E 0.0 141.6
06:50 11.6 83.6 2.4 SE 5.0 E 0.0 145.4
06:55 11.6 83.8 2.1 SE 4.2 ESE 0.0 188.5
07:00 11.8 84.3 2.1 ESE 4.4 ESE 0.0 188.2
07:05 11.8 85.0 2.4 ESE 4.0 ESE 0.0 150.2
07:10 11.9 86.3 3.0 E 5.8 E 0.0 181.6
07:15 11.9 86.7 2.9 E 5.4 E 0.0 212.3
07:20 11.8 87.2 2.8 SE 5.4 ESE 0.0 213.8
07:25 11.9 87.7 2.8 ESE 4.7 ESE 0.0 230.3
07:30 12.0 88.2 2.6 SE 5.5 ESE 0.0 247.6
07:35 12.0 88.2 2.2 SE 5.2 ESE 0.0 235.1
07:40 12.0 87.3 2.0 ESE 5.5 ENE 0.0 216.8
07:45 12.1 86.9 2.5 ESE 5.4 ESE 0.0 237.2
07:50 12.4 87.1 2.5 ESE 6.0 E 0.0 291.2
07:55 12.6 86.9 3.3 SE 5.9 SE 0.0 326.5
08:00 12.6 86.4 2.6 SE 5.8 SE 0.0 262.7
08:05 12.6 85.2 3.4 SSE 6.3 SSE 0.0 215.2
08:10 12.3 86.4 2.4 SE 5.5 SE 0.0 221.5
08:15 12.3 86.7 2.9 SE 5.7 E 0.0 294.9
08:20 12.4 86.6 2.8 SSE 5.3 S 0.0 330.8
08:25 12.8 85.4 4.2 SE 7.5 ESE 0.0 422.5
08:30 13.1 84.4 3.0 SE 6.0 ESE 0.0 459.8
08:35 13.6 82.0 3.8 SE 8.8 SE 0.0 331.1
08:40 13.3 82.4 5.8 SSE 11.2 S 0.0 297.6
08:45 13.2 83.0 4.8 SSE 8.9 SSE 0.0 242.7
08:50 13.2 82.5 3.6 SSE 10.1 N 0.0 285.4
08:55 13.3 82.4 4.0 ESE 10.1 SSE 0.0 427.5
09:00 13.6 80.9 3.9 SSE 9.1 SE 0.0 399.7
09:05 13.6 78.3 4.2 SSE 9.1 S 0.0 382.2
09:10 13.5 78.2 3.6 SE 8.2 E 0.0 349.1
09:15 13.3 78.2 4.1 SE 9.3 S 0.0 370.8
09:20 13.5 77.3 3.4 SE 9.0 S 0.0 395.2
09:25 13.5 76.9 4.1 SSE 9.1 SE 0.0 370.4
09:30 13.7 77.3 3.9 SSE 7.3 SE 0.0 393.8
09:35 13.8 77.1 3.3 SSE 6.8 SSE 0.0 393.2
09:40 13.7 76.3 3.9 ESE 8.7 E 0.0 393.4
09:45 13.5 77.2 3.6 SE 8.9 SSE 0.0 427.2
09:50 13.6 77.3 3.7 ESE 7.3 SE 0.0 427.6
09:55 14.0 75.3 3.4 SE 6.9 ESE 0.0 448.7
10:00 14.1 73.8 4.5 ESE 9.8 SE 0.0 444.0
10:05 13.9 74.7 3.8 ESE 7.4 E 0.0 397.9
10:10 14.1 75.1 4.0 ESE 8.8 E 0.0 405.7
10:15 14.2 73.3 3.3 SE 7.6 ENE 0.0 391.3
10:20 14.4 72.8 4.6 SSE 11.7 SSE 0.0 380.7
10:25 14.3 72.9 4.2 ESE 10.3 ENE 0.0 420.4
10:30 14.0 73.7 3.8 ESE 9.0 ESE 0.0 445.0
10:35 14.0 73.4 4.8 E 11.5 E 0.0 341.6
10:40 14.2 72.6 3.3 SSE 6.3 S 0.0 328.5
10:45 14.4 72.5 3.5 ESE 9.2 ENE 0.0 365.3
10:50 14.3 74.4 3.3 SE 7.7 SSE 0.0 420.4
10:55 14.2 73.8 3.3 SE 7.3 SE 0.0 392.1
11:00 14.5 73.8 4.3 SSE 9.8 ESE 0.0 370.2
11:05 14.5 74.0 3.9 SSE 11.1 ESE 0.0 417.9
11:10 14.6 74.0 3.9 SE 10.9 ESE 0.0 676.1
11:15 14.8 73.3 3.8 SE 9.0 ESE 0.0 629.2
11:20 15.0 72.4 4.6 ESE 12.5 ESE 0.0 590.8
11:25 15.3 70.5 4.1 SSE 8.5 SSE 0.0 594.5
11:30 15.1 70.2 3.7 SSE 10.5 SSE 0.0 511.5
11:35 14.8 70.5 4.2 SE 9.4 E 0.0 608.3
11:40 15.4 70.0 5.3 SE 12.1 E 0.0 435.1
11:45 14.9 70.2 4.7 E 10.0 ENE 0.0 294.3
11:50 14.7 71.7 6.1 SSE 11.8 S 0.0 637.2
11:55 15.2 69.7 5.0 SSE 9.5 S 0.0 748.4
12:00 15.8 67.3 3.3 ESE 7.7 ESE 0.0 603.3
12:05 15.9 67.1 4.3 SSE 10.3 ESE 0.0 491.3
12:10 15.7 68.2 4.3 SSE 12.1 SSE 0.0 678.0
12:15 15.7 67.0 4.4 SE 8.9 SE 0.0 643.9
12:20 15.8 67.1 5.0 SE 11.9 ENE 0.0 559.1
12:25 15.8 66.9 4.4 SSE 11.6 S 0.0 459.6
12:30 15.6 66.3 3.1 SSE 6.8 NE 0.0 342.9
12:35 15.3 67.0 5.3 SSE 13.1 S 0.0 252.0
12:40 14.7 69.4 4.1 ESE 14.0 ENE 0.0 238.0
12:45 14.9 70.1 3.6 SSE 9.3 ESE 0.0 310.9
12:50 15.1 68.9 3.5 SE 7.3 SE 0.0 423.7
12:55 15.1 69.8 4.3 ESE 9.3 ESE 0.0 439.0
13:00 15.1 69.7 4.7 SE 11.2 ENE 0.0 288.1
13:05 14.7 70.6 4.9 ESE 11.7 SE 0.0 238.8
13:10 14.4 72.0 4.7 SSE 9.0 SSE 0.0 194.3
13:15 14.2 72.3 7.7 S 13.8 SSE 0.0 220.8
13:20 14.1 73.2 4.9 S 8.9 SSW 0.0 162.0
13:25 14.0 72.8 4.0 SSE 9.3 S 0.0 136.2
13:30 13.9 73.4 4.7 S 7.5 S 0.0 175.5
13:35 14.0 73.4 5.1 S 7.9 S 0.0 292.7
13:40 14.1 73.0 5.8 SSE 12.0 SSE 0.0 280.0
13:45 13.8 73.6 4.9 SSE 10.7 SSE 0.0 229.4
13:50 13.9 74.3 3.1 SSE 7.0 ESE 0.0 252.8
13:55 14.4 73.6 5.1 SE 11.5 SSE 0.0 332.3
14:00 14.7 72.4 4.8 ESE 16.3 E 0.0 418.8
14:05 14.7 71.0 3.9 E 12.4 E 0.0 424.2
14:10 14.8 70.9 4.0 SSE 10.1 E 0.0 569.6
14:15 15.3 70.3 4.7 SSE 10.4 ESE 0.0 555.4
14:20 15.2 69.8 4.1 SSE 8.1 SSE 0.0 668.5
14:25 15.6 67.2 4.3 SE 8.5 SSE 0.0 590.8
14:30 15.5 66.4 3.6 ESE 7.9 NE 0.0 639.8
14:35 15.8 65.3 4.4 E 9.4 E 0.0 755.3
14:40 15.8 64.0 5.5 ESE 11.1 SSE 0.0 581.5
14:45 15.6 65.7 4.6 S 10.7 SW 0.0 617.4
14:50 15.8 65.4 3.8 SSE 12.2 SSE 0.0 508.8
14:55 15.7 65.3 3.7 SSE 7.9 SSE 0.0 395.5
15:00 15.5 65.8 3.9 SSE 8.3 E 0.0 258.1
15:05 15.0 69.1 3.8 SSE 9.8 E 0.0 259.1
15:10 14.9 69.8 3.6 SSE 8.4 SE 0.0 234.0
15:15 14.5 72.2 4.5 SSE 10.4 SSE 0.0 210.9
15:20 14.4 73.5 3.8 SSE 7.2 S 0.0 152.4
15:25 14.1 74.7 5.2 SSE 11.2 S 0.0 116.9
15:30 13.6 79.4 7.3 SSE 15.6 S 0.0 99.2
15:35 13.2 82.7 8.5 S 12.9 SSE 0.0 85.0
15:40 12.8 86.5 8.0 SSE 13.4 S 0.0 63.3
15:45 12.6 88.6 6.8 S 11.2 SSE 0.0 40.9
15:50 12.4 90.3 6.8 SSE 12.4 SSE 0.0 39.2
15:55 12.2 91.4 7.0 S 10.9 S 0.1 37.4
16:00 12.0 92.5 7.8 S 15.2 S 0.0 27.2
16:05 11.8 93.5 8.8 S 14.7 SSE 0.0 25.5
16:10 11.6 94.4 8.9 S 14.2 SSE 0.1 26.4
16:15 11.4 94.9 8.1 S 12.6 S 0.0 27.3
16:20 11.2 95.3 9.3 SSE 14.7 SSE 0.0 19.3
16:25 11.0 95.6 7.0 S 11.1 SSE 0.0 14.0
16:30 11.0 95.9 5.8 S 10.5 S 0.0 16.8
16:35 10.9 96.0 5.1 S 9.8 SSE 0.0 24.4
16:40 10.9 96.1 6.0 S 9.8 SSE 0.0 33.9
16:45 10.9 96.2 5.2 S 10.8 S 0.0 34.2
16:50 10.9 96.3 4.9 S 9.0 SSE 0.0 34.9
16:55 11.0 96.4 4.6 S 7.8 S 0.0 32.8
17:00 11.0 96.4 5.3 S 10.6 SSE 0.1 27.0
17:05 11.0 96.5 5.0 S 9.3 SSE 0.0 21.1
17:10 11.0 96.5 5.3 S 8.5 S 0.0 21.0
17:15 10.9 96.6 6.7 S 11.7 S 0.0 24.3
17:20 10.8 96.5 6.2 S 13.3 S 0.0 25.9
17:25 10.6 96.4 7.6 S 12.1 SSE 0.0 28.7
17:30 10.6 96.3 6.2 S 10.2 SSE 0.0 34.8
17:35 10.7 96.1 4.7 S 8.5 SSE 0.0 38.7
17:40 10.7 96.0 4.9 S 9.3 S 0.0 26.7
17:45 10.8 95.9 3.4 S 7.2 S 0.0 31.1
17:50 10.9 95.8 4.2 S 8.0 S 0.0 29.6
17:55 10.9 95.6 4.4 S 7.1 SSW 0.0 29.4
18:00 10.9 95.2 3.2 S 7.3 S 0.0 31.0
18:05 10.9 94.8 4.3 S 8.6 S 0.0 31.4
18:10 10.9 94.2 4.5 S 9.8 S 0.0 29.9
18:15 10.9 93.8 3.7 S 8.8 S 0.0 20.4
18:20 10.9 93.4 4.7 S 7.4 SSW 0.0 10.9
18:25 10.9 93.0 4.3 S 9.3 S 0.0 7.2
18:30 11.0 92.7 4.6 S 7.7 S 0.0 4.5
18:35 11.0 92.5 3.8 S 6.8 SSW 0.0 3.0
18:40 11.0 92.4 1.7 SW 5.3 S 0.0 2.2
18:45 11.0 92.4 1.5 WSW 3.2 WSW 0.0 1.8
18:50 10.9 92.6 1.3 WSW 3.2 W 0.0 1.1
18:55 10.9 92.8 1.8 SW 3.8 SSW 0.0 0.2
19:00 10.9 92.9 2.7 SSW 8.7 SSE 0.0 0.0
19:05 10.8 92.3 4.9 S 8.1 SSE 0.0 0.0
19:10 10.9 91.8 5.0 S 9.2 SSE 0.0 0.0
19:15 10.9 91.3 3.2 S 6.4 S 0.0 0.0
19:20 10.9 91.0 2.5 SSW 3.9 S 0.0 0.0
19:25 10.8 90.7 2.7 S 6.2 SSE 0.0 0.0
Máxima 15.9 96.6 9.3 SSE 16.3 E 0.1 755.3
Mínima 10.1 64.0
Total 0.3